EW5239 Weather Reports


Display with metric or nautical units.
time (UTC)temp
F
wind
direction
speed
MPH
gust
MPH
rain 1hr
in
rain 24hr
in
rain mn
in
humidity
%
barometer
mb
20260507114505 58 331 3.0 5.0 0.00 0.32 0.12 99 1010.1
20260507114503 58 64 3.0 4.0 0.00 0.37 0.14 94 1011.6
20260507114005 57 330 2.0 5.0 0.00 0.32 0.12 99 1009.9
20260507113505 57 351 1.0 4.0 0.00 0.32 0.12 99 1010.0
20260507113503 57 347 2.0 4.0 0.00 0.37 0.14 96 1011.8
20260507113005 57 348 1.0 3.0 0.00 0.32 0.12 99 1010.2
20260507112505 56 4 0.0 3.0 0.00 0.32 0.12 99 1010.3
20260507112503 57 338 3.0 4.0 0.00 0.37 0.14 97 1011.8
20260507112005 56 2 1.0 4.0 0.00 0.32 0.12 99 1010.3
20260507112003 57 6 3.0 4.0 0.00 0.37 0.14 99 1012.0
20260507111506 56 1 1.0 4.0 0.00 0.32 0.12 99 1010.2
20260507111503 57 44 2.0 4.0 0.00 0.37 0.14 99 1011.6
20260507111004 56 158 1.0 3.0 0.00 0.32 0.12 99 1010.1
20260507110505 56 158 1.0 3.0 0.00 0.32 0.12 99 1009.9
20260507110503 56 70 2.0 3.0 0.00 0.37 0.14 99 1011.7
20260507110005 55 0 0.0 0.0 0.00 0.32 0.12 99 1009.9
20260507105504 55 337 0.0 2.0 0.00 0.32 0.12 97 1010.0
20260507105005 55 331 2.0 5.0 0.00 0.32 0.12 97 1009.9
20260507104505 55 321 3.0 5.0 0.00 0.32 0.12 97 1009.9
20260507104004 54 302 3.0 5.0 0.00 0.32 0.12 97 1009.7
20260507103503 55 67 3.0 4.0 0.00 0.37 0.14 97 1011.5
20260507103005 54 292 1.0 5.0 0.00 0.32 0.12 97 1009.6
20260507102505 54 315 1.0 4.0 0.00 0.32 0.12 97 1009.7
20260507102503 55 67 2.0 4.0 0.00 0.37 0.14 97 1011.4
20260507102007 54 321 0.0 4.0 0.00 0.32 0.12 97 1009.6
20260507102004 54 347 2.0 4.0 0.00 0.37 0.14 97 1011.1
20260507101506 54 324 1.0 3.0 0.00 0.32 0.12 97 1009.7
20260507101503 54 309 2.0 4.0 0.00 0.37 0.14 97 1011.1
20260507101004 54 334 3.0 3.0 0.00 0.32 0.12 97 1009.5
20260507100504 54 1 2.0 3.0 0.00 0.37 0.14 97 1011.2
20260507100005 53 338 2.0 4.0 0.00 0.32 0.12 98 1009.3
20260507095505 53 330 2.0 4.0 0.00 0.32 0.12 98 1009.2
20260507095503 54 339 3.0 4.0 0.00 0.37 0.14 97 1010.8
20260507095003 54 357 3.0 4.0 0.00 0.37 0.14 97 1010.9
20260507094505 53 354 3.0 5.0 0.00 0.32 0.12 98 1009.2
20260507094503 54 352 4.0 4.0 0.00 0.37 0.14 97 1010.7
20260507094005 53 359 3.0 5.0 0.00 0.32 0.12 98 1009.1
20260507094003 54 345 4.0 4.0 0.00 0.37 0.14 97 1010.7
20260507093504 53 316 3.0 4.0 0.00 0.32 0.12 98 1009.1
20260507093003 53 350 3.0 4.0 0.00 0.37 0.14 98 1011.0
20260507092505 53 349 3.0 5.0 0.00 0.32 0.12 98 1009.1
20260507092004 53 347 4.0 5.0 0.00 0.32 0.12 98 1009.2
20260507091505 53 343 3.0 4.0 0.00 0.32 0.12 98 1009.2
20260507091003 53 348 3.0 4.0 0.00 0.37 0.14 98 1010.5
20260507090504 53 344 4.0 4.0 0.00 0.32 0.12 98 1008.9
20260507090009 53 344 3.0 4.0 0.00 0.37 0.14 98 1010.5
20260507090006 53 336 3.0 4.0 0.00 0.32 0.12 98 1008.8
20260507085505 53 356 3.0 4.0 0.00 0.32 0.12 98 1008.7
20260507085004 53 357 4.0 5.0 0.00 0.32 0.12 98 1008.6
20260507084505 53 351 4.0 6.0 0.00 0.32 0.12 98 1008.6
20260507084005 53 336 4.0 6.0 0.00 0.32 0.12 98 1008.5
20260507084003 53 351 4.0 6.0 0.00 0.37 0.14 98 1010.4
20260507083505 53 341 4.0 6.0 0.00 0.32 0.12 98 1008.4
20260507083004 53 25 4.0 5.0 0.00 0.37 0.14 98 1010.0
20260507082505 53 346 4.0 6.0 0.00 0.32 0.12 98 1008.3
20260507082003 53 343 4.0 7.0 0.00 0.37 0.14 98 1009.9
20260507081504 53 349 4.0 7.0 0.00 0.37 0.14 98 1009.5
20260507081005 53 1 5.0 6.0 0.00 0.32 0.12 98 1008.1
20260507080505 53 355 5.0 5.0 0.00 0.32 0.12 98 1008.0
20260507080009 53 342 4.0 6.0 0.00 0.37 0.14 98 1009.8
20260507080005 53 339 5.0 6.0 0.00 0.32 0.12 98 1008.1
20260507075505 53 326 4.0 6.0 0.00 0.32 0.12 98 1008.1
20260507075005 53 339 5.0 7.0 0.00 0.32 0.12 98 1008.0
20260507074504 53 342 5.0 7.0 0.00 0.32 0.12 98 1007.9
20260507074005 54 325 5.0 7.0 0.00 0.32 0.12 97 1007.9
20260507073505 54 302 4.0 5.0 0.00 0.32 0.12 97 1007.8
20260507073503 53 322 4.0 6.0 0.00 0.37 0.14 98 1009.6
20260507073004 53 294 4.0 6.0 0.00 0.37 0.14 98 1009.5
20260507072505 54 318 4.0 6.0 0.01 0.32 0.12 97 1007.7
20260507072005 54 313 5.0 8.0 0.02 0.32 0.12 97 1007.7
20260507071505 54 319 5.0 8.0 0.02 0.32 0.12 97 1007.6
20260507071005 54 325 5.0 8.0 0.02 0.32 0.12 97 1007.5
20260507070504 54 331 5.0 7.0 0.04 0.32 0.12 97 1007.5
20260507070009 55 328 4.0 7.0 0.04 0.32 0.12 97 1007.4
20260507065505 55 316 3.0 5.0 0.04 0.32 0.12 97 1007.3
20260507065503 55 316 3.0 4.0 0.04 0.37 0.14 97 1009.1
20260507065004 55 344 2.0 4.0 0.04 0.37 0.14 99 1009.0
20260507064505 55 326 2.0 4.0 0.04 0.32 0.12 97 1007.0
20260507064005 55 355 3.0 5.0 0.04 0.32 0.12 97 1006.8
20260507064003 55 21 3.0 4.0 0.04 0.37 0.14 97 1008.7
20260507063505 55 352 4.0 6.0 0.04 0.32 0.12 97 1006.7
20260507063005 55 354 4.0 6.0 0.02 0.31 0.11 97 1006.6
20260507063003 55 31 4.0 5.0 0.05 0.37 0.14 97 1008.4
20260507062504 55 9 3.0 5.0 0.04 0.35 0.13 97 1008.3
20260507062005 55 332 2.0 3.0 0.04 0.30 0.09 97 1006.8
20260507062003 55 335 2.0 3.0 0.05 0.34 0.12 97 1008.5
20260507061505 55 324 2.0 3.0 0.06 0.30 0.09 97 1006.8
20260507061503 55 345 2.0 3.0 0.07 0.34 0.12 97 1008.3
20260507061004 55 322 3.0 3.0 0.06 0.30 0.09 97 1006.7
20260507060505 55 318 3.0 3.0 0.05 0.28 0.08 97 1006.7
20260507060503 55 347 2.0 3.0 0.06 0.33 0.11 97 1008.5
20260507060010 55 331 2.0 4.0 0.06 0.33 0.11 97 1008.4
20260507060005 55 328 2.0 4.0 0.05 0.28 0.08 97 1006.6
20260507055504 55 338 3.0 4.0 0.05 0.28 0.08 97 1006.7
20260507055005 55 340 3.0 4.0 0.05 0.28 0.08 97 1006.6
20260507055003 55 357 3.0 4.0 0.06 0.33 0.11 97 1008.4
20260507054505 55 334 3.0 4.0 0.05 0.28 0.08 97 1006.4
20260507054003 55 336 3.0 4.0 0.06 0.33 0.11 97 1008.4
20260507053505 55 308 2.0 4.0 0.05 0.28 0.08 97 1006.4
20260507053503 55 329 3.0 4.0 0.06 0.33 0.11 97 1008.3
20260507053005 55 324 2.0 3.0 0.05 0.28 0.08 97 1006.4
20260507052504 55 304 3.0 4.0 0.04 0.27 0.07 97 1006.5
20260507052003 55 277 3.0 4.0 0.01 0.28 0.06 97 1008.2
20260507051504 55 285 3.0 4.0 0.00 0.27 0.05 97 1008.1
20260507051004 55 286 2.0 3.0 0.00 0.24 0.04 97 1006.4
20260507050505 55 277 1.0 2.0 0.00 0.24 0.04 99 1006.3
20260507050503 55 263 1.0 2.0 0.00 0.27 0.05 97 1008.0
20260507050009 55 287 1.0 2.0 0.00 0.27 0.05 97 1008.0
20260507050005 55 306 1.0 2.0 0.00 0.24 0.04 99 1006.2
20260507045505 55 310 1.0 2.0 0.00 0.24 0.04 99 1006.2
20260507045003 55 355 1.0 2.0 0.00 0.27 0.05 99 1007.7
20260507044504 55 330 1.0 2.0 0.00 0.24 0.04 99 1006.0
20260507044005 55 337 1.0 2.0 0.00 0.24 0.04 99 1005.9
20260507043505 55 6 2.0 2.0 0.00 0.24 0.04 99 1005.8
20260507043503 55 23 1.0 2.0 0.01 0.27 0.05 99 1007.6
20260507043004 55 12 1.0 2.0 0.00 0.24 0.04 99 1005.8
20260507042503 55 17 0.0 2.0 0.01 0.27 0.05 97 1007.6
20260507042005 55 341 2.0 3.0 0.00 0.24 0.04 99 1005.6
20260507041504 55 354 2.0 3.0 0.00 0.24 0.04 99 1005.6
20260507041004 55 41 2.0 3.0 0.01 0.27 0.05 97 1007.3
20260507040505 55 356 2.0 2.0 0.00 0.24 0.04 99 1005.6
20260507040503 55 40 2.0 3.0 0.01 0.27 0.05 97 1007.4
20260507040005 55 333 2.0 2.0 0.00 0.24 0.04 99 1005.6
20260507035505 56 318 2.0 3.0 0.00 0.24 0.04 99 1005.6
20260507035005 56 313 2.0 3.0 0.00 0.24 0.04 99 1005.6
20260507034505 56 297 1.0 2.0 0.00 0.24 0.04 99 1005.4
20260507034503 56 312 1.0 2.0 0.01 0.27 0.05 99 1007.1
20260507034005 56 294 1.0 2.0 0.00 0.24 0.04 99 1005.4
20260507033505 56 300 1.0 2.0 0.00 0.24 0.04 99 1005.3
20260507033503 56 315 1.0 2.0 0.00 0.26 0.04 99 1007.2
20260507032504 56 264 2.0 5.0 0.00 0.24 0.04 99 1005.1
20260507032005 56 298 3.0 5.0 0.00 0.24 0.04 99 1005.4
20260507031505 56 300 2.0 5.0 0.00 0.24 0.04 99 1005.6
20260507031004 56 276 1.0 3.0 0.00 0.26 0.04 99 1007.2
20260507030505 56 286 3.0 4.0 0.00 0.24 0.04 99 1005.3
20260507030503 56 279 3.0 4.0 0.00 0.26 0.04 99 1007.0
20260507030009 56 281 3.0 4.0 0.00 0.26 0.04 99 1007.2
20260507025504 56 272 3.0 4.0 0.00 0.24 0.04 99 1005.2
20260507025005 56 278 2.0 4.0 0.00 0.24 0.04 99 1005.1
20260507024503 56 243 1.0 2.0 0.00 0.26 0.04 99 1006.8
20260507024004 56 202 1.0 2.0 0.00 0.24 0.04 99 1004.9
20260507023505 56 260 2.0 4.0 0.00 0.24 0.04 99 1005.0
20260507023005 56 270 1.0 4.0 0.00 0.24 0.04 99 1005.0
20260507023003 56 282 2.0 4.0 0.00 0.26 0.04 99 1006.7
20260507022504 56 85 1.0 2.0 0.00 0.26 0.04 99 1006.7
20260507022005 56 86 1.0 2.0 0.00 0.24 0.04 99 1004.5
20260507022003 56 93 1.0 2.0 0.00 0.26 0.04 99 1006.5
20260507021505 56 72 2.0 2.0 0.00 0.24 0.04 99 1004.7
20260507021005 56 327 2.0 2.0 0.00 0.24 0.04 99 1004.7
20260507020504 56 323 1.0 2.0 0.00 0.24 0.04 99 1004.7
20260507020010 56 78 1.0 3.0 0.00 0.26 0.04 99 1006.6
20260507015504 56 92 2.0 3.0 0.00 0.24 0.04 99 1005.0
20260507015005 56 58 2.0 3.0 0.00 0.24 0.04 99 1004.9
20260507015003 56 83 2.0 3.0 0.00 0.26 0.04 99 1006.6
20260507014505 56 20 3.0 4.0 0.00 0.24 0.04 99 1004.8
20260507014004 56 34 3.0 4.0 0.00 0.26 0.04 99 1006.5
20260507013505 56 8 3.0 4.0 0.00 0.24 0.04 99 1004.8
20260507013005 56 85 3.0 4.0 0.00 0.24 0.04 99 1004.7
20260507013003 56 105 3.0 4.0 0.00 0.26 0.04 99 1006.5
20260507012504 56 110 3.0 4.0 0.00 0.24 0.04 99 1004.5
20260507012005 56 122 4.0 4.0 0.00 0.24 0.04 99 1004.5
20260507012003 56 99 3.0 4.0 0.00 0.26 0.04 99 1006.3
20260507011505 56 89 4.0 5.0 0.00 0.24 0.04 99 1004.5
20260507011503 56 90 4.0 4.0 0.00 0.26 0.04 99 1006.3
20260507010505 57 42 3.0 4.0 0.00 0.24 0.04 99 1004.6
20260507010503 56 43 4.0 5.0 0.00 0.26 0.04 99 1006.3
20260507010010 57 28 2.0 4.0 0.00 0.26 0.04 99 1006.5
20260507010005 57 17 3.0 4.0 0.00 0.24 0.04 99 1004.6
20260507005504 57 82 3.0 4.0 0.00 0.24 0.04 99 1004.7
20260507005005 57 4 4.0 6.0 0.00 0.24 0.04 98 1004.7
20260507004505 57 336 6.0 10.0 0.00 0.24 0.04 98 1004.7
20260507004004 57 325 5.0 10.0 0.00 0.24 0.04 98 1004.8
20260507003505 57 331 4.0 8.0 0.00 0.24 0.04 98 1004.9
20260507003004 57 356 3.0 7.0 0.00 0.26 0.04 99 1006.5
20260507002505 57 333 3.0 5.0 0.00 0.24 0.04 98 1005.1
20260507002503 57 349 3.0 4.0 0.00 0.26 0.04 99 1006.6
20260507002005 57 318 2.0 4.0 0.01 0.24 0.04 98 1004.9
20260507002003 57 353 2.0 4.0 0.00 0.26 0.04 99 1006.5
20260507001504 57 319 2.0 4.0 0.02 0.24 0.04 98 1005.0
20260507001004 57 341 2.0 4.0 0.02 0.26 0.04 99 1007.0
20260507000505 57 326 2.0 3.0 0.02 0.24 0.04 96 1005.1
20260507000503 57 346 2.0 3.0 0.02 0.26 0.04 99 1006.9
20260507000010 57 352 2.0 4.0 0.02 0.26 0.04 99 1006.9
20260507000005 57 338 2.0 4.0 0.02 0.24 0.04 96 1005.2
20260506235505 57 341 3.0 4.0 0.02 0.24 0.04 96 1005.4
20260506235503 57 14 3.0 4.0 0.02 0.26 0.04 99 1007.0
20260506235004 57 38 4.0 6.0 0.02 0.26 0.04 99 1006.8
20260506234504 57 26 3.0 6.0 0.02 0.26 0.04 99 1006.8
20260506234005 57 341 3.0 4.0 0.02 0.24 0.04 95 1005.1
20260506234003 57 340 3.0 4.0 0.02 0.26 0.04 99 1006.7
20260506233505 57 4 4.0 5.0 0.02 0.24 0.04 95 1005.1
20260506233004 57 337 4.0 8.0 0.02 0.24 0.04 95 1005.0
20260506232505 57 312 4.0 8.0 0.02 0.24 0.04 95 1005.2
20260506232503 57 291 4.0 9.0 0.02 0.26 0.04 97 1006.7
20260506232005 57 319 4.0 7.0 0.01 0.22 0.02 95 1005.4
20260506231505 58 317 4.0 7.0 0.00 0.21 0.01 95 1005.4
20260506231005 58 308 4.0 6.0 0.01 0.21 0.01 95 1005.1
20260506231003 57 314 4.0 6.0 0.01 0.24 0.01 97 1007.0
20260506230504 58 298 4.0 6.0 0.01 0.21 0.01 94 1005.3
20260506230009 58 302 3.0 4.0 0.01 0.24 0.01 96 1006.7
20260506230005 58 298 3.0 4.0 0.01 0.21 0.01 94 1005.1
20260506225504 58 350 4.0 7.0 0.01 0.24 0.01 96 1006.6
20260506225005 58 311 4.0 8.0 0.01 0.21 0.01 94 1004.7
20260506224504 58 357 3.0 4.0 0.01 0.24 0.01 95 1006.5
20260506224005 58 5 3.0 5.0 0.01 0.21 0.01 94 1004.8
20260506223504 58 1 3.0 4.0 0.01 0.21 0.01 94 1004.7
20260506223004 58 344 3.0 5.0 0.02 0.21 0.01 93 1004.7
20260506222505 58 338 3.0 5.0 0.02 0.21 0.01 93 1004.6
20260506222004 58 16 4.0 4.0 0.02 0.24 0.01 94 1006.2
20260506221504 58 335 3.0 4.0 0.02 0.21 0.01 92 1004.8
20260506221004 58 11 2.0 3.0 0.02 0.22 0.00 94 1006.7
20260506220505 58 321 0.0 4.0 0.02 0.20 0.00 91 1004.8
20260506220503 58 12 1.0 2.0 0.02 0.22 0.00 93 1006.3
20260506220011 58 342 2.0 4.0 0.05 0.22 0.00 93 1006.8
20260506220005 58 325 2.0 4.0 0.07 0.20 0.00 91 1004.9
20260506215504 58 319 3.0 4.0 0.14 0.20 0.20 90 1005.0
20260506215006 58 308 3.0 4.0 0.20 0.20 0.20 90 1005.2
20260506215004 58 321 3.0 4.0 0.22 0.22 0.22 91 1006.9
20260506214505 58 308 4.0 6.0 0.20 0.20 0.20 89 1005.3
20260506214503 58 324 4.0 7.0 0.22 0.22 0.22 91 1006.9
20260506214003 58 295 5.0 7.0 0.22 0.22 0.22 90 1006.8
20260506213504 58 289 4.0 6.0 0.20 0.20 0.20 88 1005.3
20260506213005 59 284 4.0 6.0 0.19 0.19 0.19 87 1005.2
20260506212504 59 280 4.0 6.0 0.19 0.19 0.19 86 1005.2
20260506212013 58 295 6.0 8.0 0.21 0.21 0.21 86 1006.9
20260506212005 59 303 6.0 11.0 0.19 0.19 0.19 85 1005.0
20260506211724 59 297 7.0 11.0 0.20 0.20 0.20 86 1007.0
20260506211505 59 314 7.0 11.0 0.19 0.19 0.19 84 1005.0
20260506211225 59 305 8.0 11.0 0.20 0.20 0.20 85 1006.6
20260506210231 60 296 8.0 11.0 0.15 0.15 0.15 79 1006.4
20260506210005 60 287 7.0 11.0 0.13 0.13 0.13 77 1004.7
20260506205725 61 301 6.0 11.0 0.12 0.12 0.12 76 1006.4
20260506205505 61 289 5.0 8.0 0.06 0.06 0.06 73 1004.5
20260506205224 61 297 3.0 7.0 0.00 0.00 0.00 74 1006.1
20260506205004 62 289 3.0 6.0 0.00 0.00 0.00 72 1004.4
20260506204724 62 96 1.0 3.0 0.00 0.00 0.00 73 1005.9
20260506204504 62 129 2.0 4.0 0.00 0.00 0.00 72 1003.8
20260506204224 61 157 2.0 4.0 0.00 0.00 0.00 73 1005.5
20260506204005 62 184 3.0 4.0 0.00 0.00 0.00 72 1003.8
20260506203724 61 216 3.0 4.0 0.00 0.00 0.00 73 1005.5
20260506203504 61 239 3.0 4.0 0.00 0.00 0.00 72 1004.0
20260506203005 62 263 2.0 4.0 0.00 0.00 0.00 70 1004.0
20260506202724 61 248 2.0 4.0 0.00 0.00 0.00 71 1005.6
20260506202505 62 270 0.0 3.0 0.00 0.00 0.00 69 1003.8
20260506202224 61 119 1.0 2.0 0.00 0.00 0.00 70 1005.3
20260506202004 62 0 0.0 0.0 0.00 0.00 0.00 68 1003.8
20260506201724 61 116 1.0 2.0 0.00 0.00 0.00 69 1005.4
20260506201505 62 0 0.0 0.0 0.00 0.00 0.00 67 1003.6
20260506201224 61 0 0.0 0.0 0.00 0.00 0.00 68 1005.5
20260506201004 62 0 0.0 0.0 0.00 0.00 0.00 67 1003.7
20260506200724 62 0 0.0 0.0 0.00 0.00 0.00 67 1005.6
20260506200505 63 270 0.0 2.0 0.00 0.00 0.00 65 1003.9
20260506200005 63 311 0.0 2.0 0.00 0.00 0.00 65 1003.9
20260506195724 62 110 0.0 2.0 0.00 0.00 0.00 66 1005.6
20260506195505 63 97 1.0 2.0 0.00 0.00 0.00 64 1004.0
20260506195225 62 103 1.0 2.0 0.00 0.00 0.00 65 1005.8
20260506195005 63 107 1.0 2.0 0.00 0.00 0.00 64 1004.0
20260506194724 63 89 1.0 2.0 0.00 0.00 0.00 64 1005.7
20260506194504 64 90 0.0 2.0 0.00 0.00 0.00 63 1003.9
20260506194005 64 0 0.0 0.0 0.00 0.00 0.00 63 1004.0
20260506193724 63 90 0.0 2.0 0.00 0.00 0.00 64 1005.6
20260506193505 64 0 0.0 0.0 0.00 0.00 0.00 62 1004.2
20260506193224 63 0 0.0 0.0 0.00 0.00 0.00 63 1005.7
20260506193004 64 0 0.0 0.0 0.00 0.00 0.00 61 1004.3
20260506192724 63 0 0.0 0.0 0.00 0.00 0.00 63 1006.0
20260506192224 64 0 0.0 0.0 0.00 0.00 0.00 62 1005.7
20260506192004 65 0 0.0 0.0 0.00 0.00 0.00 60 1004.2
20260506191504 66 0 0.0 0.0 0.00 0.00 0.00 59 1004.0
20260506191224 65 225 0.0 1.0 0.00 0.00 0.00 59 1005.8
20260506191005 66 0 0.0 0.0 0.00 0.00 0.00 57 1004.0
20260506190505 67 0 0.0 0.0 0.00 0.00 0.00 57 1004.0
20260506190231 66 0 0.0 0.0 0.00 0.00 0.00 57 1005.6
20260506190005 67 0 0.0 0.0 0.00 0.00 0.00 56 1003.8
20260506185505 67 0 0.0 0.0 0.00 0.00 0.00 56 1003.9
20260506185004 67 0 0.0 0.0 0.00 0.00 0.00 56 1003.7
20260506184725 67 0 0.0 0.0 0.00 0.00 0.00 56 1005.5
20260506184504 67 0 0.0 0.0 0.00 0.00 0.00 55 1003.8
20260506184224 67 0 0.0 0.0 0.00 0.00 0.00 55 1005.4
20260506184005 68 0 0.0 0.0 0.00 0.00 0.00 55 1003.6
20260506183724 67 225 0.0 1.0 0.00 0.00 0.00 55 1005.4
20260506183504 68 0 0.0 0.0 0.00 0.00 0.00 54 1003.7
20260506182725 68 265 1.0 2.0 0.00 0.00 0.00 55 1005.4
20260506182224 68 268 1.0 2.0 0.00 0.00 0.00 53 1005.3
20260506182005 69 0 0.0 0.0 0.00 0.00 0.00 53 1003.5
20260506181504 69 0 0.0 0.0 0.00 0.00 0.00 53 1003.5
20260506181224 69 270 0.0 1.0 0.00 0.00 0.00 52 1005.1
20260506181004 70 0 0.0 0.0 0.00 0.00 0.00 51 1003.4
20260506180724 70 270 0.0 1.0 0.00 0.00 0.00 49 1005.0
20260506180505 71 314 0.0 2.0 0.00 0.00 0.00 49 1003.3
20260506180230 70 225 0.0 1.0 0.00 0.00 0.00 49 1005.0
20260506180005 71 282 1.0 2.0 0.00 0.00 0.00 49 1003.3
20260506175724 71 257 0.0 1.0 0.00 0.00 0.00 48 1005.0
20260506175505 71 269 1.0 2.0 0.00 0.00 0.00 48 1003.4
20260506175225 71 309 0.0 1.0 0.00 0.00 0.00 48 1005.0
20260506175005 72 297 1.0 2.0 0.00 0.00 0.00 46 1003.4
20260506174725 71 300 1.0 3.0 0.00 0.00 0.00 48 1004.9
20260506174225 72 308 1.0 3.0 0.00 0.00 0.00 46 1005.0
20260506174005 73 295 2.0 4.0 0.00 0.00 0.00 46 1003.5
20260506173724 72 307 2.0 4.0 0.00 0.00 0.00 46 1004.9
20260506173505 74 286 2.0 4.0 0.00 0.00 0.00 46 1003.5
20260506173225 72 302 3.0 5.0 0.00 0.00 0.00 45 1005.0
20260506173004 74 293 3.0 5.0 0.00 0.00 0.00 46 1003.6
20260506172724 72 295 3.0 5.0 0.00 0.00 0.00 45 1004.9
20260506172504 74 291 4.0 5.0 0.00 0.00 0.00 45 1003.5
20260506172225 72 273 4.0 5.0 0.00 0.00 0.00 44 1005.0
20260506171724 73 254 4.0 5.0 0.00 0.00 0.00 43 1005.3
20260506171504 74 260 5.0 6.0 0.00 0.00 0.00 45 1003.5
20260506171224 73 231 4.0 7.0 0.00 0.00 0.00 44 1005.1
20260506171004 74 255 5.0 6.0 0.00 0.00 0.00 45 1003.4
20260506170725 73 245 5.0 7.0 0.00 0.00 0.00 43 1005.1
20260506165724 73 275 5.0 6.0 0.00 0.00 0.00 44 1005.0
20260506165005 73 284 6.0 8.0 0.00 0.00 0.00 45 1003.5
20260506164725 72 287 6.0 8.0 0.00 0.00 0.00 44 1005.2
20260506164224 72 296 6.0 8.0 0.00 0.00 0.00 44 1005.1
20260506164005 73 302 6.0 9.0 0.00 0.00 0.00 45 1003.5
20260506163724 72 262 7.0 8.0 0.00 0.00 0.00 44 1005.0
20260506163504 72 288 7.0 9.0 0.00 0.00 0.00 44 1003.6
20260506163225 72 259 8.0 9.0 0.00 0.00 0.00 43 1005.3
20260506163004 72 293 8.0 10.0 0.00 0.00 0.00 44 1003.6
20260506162724 72 281 8.0 11.0 0.00 0.00 0.00 43 1005.3
20260506162505 72 300 8.0 12.0 0.00 0.00 0.00 44 1003.5
20260506161725 72 260 6.0 8.0 0.00 0.00 0.00 42 1005.4
20260506161504 73 266 7.0 11.0 0.00 0.00 0.00 43 1003.6
20260506161224 73 251 7.0 10.0 0.00 0.00 0.00 42 1005.5
20260506161005 73 290 7.0 11.0 0.00 0.00 0.00 43 1003.6
20260506160724 73 273 9.0 11.0 0.00 0.00 0.00 42 1005.4
20260506160504 74 271 9.0 14.0 0.00 0.00 0.00 45 1003.6
20260506160231 73 294 10.0 13.0 0.00 0.00 0.00 43 1005.3
20260506160005 74 270 10.0 14.0 0.00 0.00 0.00 44 1003.6
20260506155504 74 281 9.0 14.0 0.00 0.00 0.00 45 1003.8
20260506155225 73 281 8.0 11.0 0.00 0.00 0.00 43 1005.4
20260506155005 74 264 10.0 17.0 0.00 0.00 0.00 45 1003.7
20260506154725 73 273 12.0 18.0 0.00 0.00 0.00 43 1005.5
20260506154004 74 242 13.0 17.0 0.00 0.00 0.00 44 1003.8
20260506153724 74 293 12.0 15.0 0.00 0.00 0.00 42 1005.4
20260506153505 74 253 10.0 14.0 0.00 0.00 0.00 44 1003.6
20260506153224 74 275 10.0 14.0 0.00 0.00 0.00 42 1005.5
20260506153004 74 247 10.0 17.0 0.00 0.00 0.00 44 1003.8
20260506152724 74 289 10.0 17.0 0.00 0.00 0.00 42 1005.5
20260506152504 75 267 11.0 17.0 0.00 0.00 0.00 43 1003.9
20260506152224 74 271 11.0 17.0 0.00 0.00 0.00 41 1005.6
20260506152005 75 284 11.0 13.0 0.00 0.00 0.00 44 1003.7
20260506151725 74 276 11.0 12.0 0.00 0.00 0.00 42 1005.7
20260506151504 74 258 10.0 13.0 0.00 0.00 0.00 43 1003.9
20260506151225 74 293 11.0 17.0 0.00 0.00 0.00 42 1005.4
20260506151004 74 273 12.0 17.0 0.00 0.00 0.00 43 1004.0
20260506150724 74 282 13.0 18.0 0.00 0.00 0.00 40 1005.7
20260506150505 74 270 13.0 17.0 0.00 0.00 0.00 43 1004.0
20260506150230 74 293 12.0 18.0 0.00 0.00 0.00 40 1005.3
20260506150005 75 248 12.0 15.0 0.00 0.00 0.00 43 1003.8
20260506145505 75 261 11.0 15.0 0.00 0.00 0.00 41 1003.7
20260506145225 75 252 11.0 16.0 0.00 0.00 0.00 40 1005.5
20260506145004 75 239 12.0 15.0 0.00 0.00 0.00 40 1003.7
20260506144725 76 245 12.0 18.0 0.00 0.00 0.00 39 1005.6
20260506144504 75 241 13.0 18.0 0.00 0.00 0.00 41 1003.8
20260506144224 75 287 16.0 21.0 0.00 0.00 0.00 41 1005.6
20260506144005 75 273 15.0 19.0 0.00 0.00 0.00 40 1003.8
20260506143724 75 299 15.0 21.0 0.00 0.00 0.00 39 1005.6
20260506143504 75 251 13.0 19.0 0.00 0.00 0.00 42 1003.6
20260506143225 76 273 11.0 17.0 0.00 0.00 0.00 41 1005.4
20260506142724 76 259 9.0 17.0 0.00 0.00 0.00 42 1005.2
20260506142505 75 269 10.0 14.0 0.00 0.00 0.00 44 1003.8
20260506142224 75 282 12.0 22.0 0.00 0.00 0.00 44 1005.4
20260506142004 75 280 13.0 21.0 0.00 0.00 0.00 45 1003.8
20260506141725 75 286 15.0 22.0 0.00 0.00 0.00 45 1005.4
20260506141504 75 292 17.0 21.0 0.00 0.00 0.00 45 1003.8
20260506141225 75 297 17.0 21.0 0.00 0.00 0.00 45 1005.6
20260506141005 75 297 18.0 21.0 0.00 0.00 0.00 45 1003.9
20260506140724 75 322 16.0 21.0 0.00 0.00 0.00 44 1005.7
20260506140504 75 282 15.0 19.0 0.00 0.00 0.00 45 1004.1
20260506140231 75 301 14.0 18.0 0.00 0.00 0.00 44 1005.5
20260506135004 75 256 12.0 17.0 0.00 0.00 0.00 46 1004.0
20260506134725 74 258 10.0 15.0 0.00 0.00 0.00 46 1005.5
20260506134504 74 243 9.0 13.0 0.00 0.00 0.00 46 1003.9
20260506133724 74 250 11.0 16.0 0.00 0.00 0.00 46 1005.5
20260506133504 74 236 11.0 17.0 0.00 0.00 0.00 46 1003.8
20260506133004 74 244 11.0 15.0 0.00 0.00 0.00 46 1003.9
20260506132724 74 257 12.0 16.0 0.00 0.00 0.00 45 1005.4
20260506132505 74 284 12.0 16.0 0.00 0.00 0.00 46 1003.9
20260506132224 75 273 13.0 16.0 0.00 0.00 0.00 45 1005.4
20260506132005 75 270 13.0 16.0 0.00 0.00 0.00 45 1003.6
20260506131725 75 256 12.0 16.0 0.00 0.00 0.00 44 1005.2
20260506131504 75 235 12.0 16.0 0.00 0.00 0.00 45 1003.8
20260506131005 75 226 10.0 13.0 0.00 0.00 0.00 45 1003.8
20260506130232 74 254 11.0 15.0 0.00 0.00 0.00 46 1005.4
20260506130005 74 240 10.0 15.0 0.00 0.00 0.00 48 1004.0
20260506125724 73 244 10.0 15.0 0.00 0.00 0.00 46 1005.8
20260506125224 73 243 10.0 15.0 0.00 0.00 0.00 46 1005.6
20260506125004 73 272 11.0 16.0 0.00 0.00 0.00 48 1004.0
20260506124724 73 234 10.0 15.0 0.00 0.00 0.00 47 1005.6
20260506124505 73 253 11.0 16.0 0.00 0.00 0.00 48 1004.0
20260506124225 74 233 10.0 16.0 0.00 0.00 0.00 47 1005.5
20260506124004 74 236 10.0 16.0 0.00 0.00 0.00 48 1004.1
20260506123724 74 266 11.0 16.0 0.00 0.00 0.00 46 1005.5
20260506123504 74 260 12.0 16.0 0.00 0.00 0.00 48 1004.0
20260506123225 74 287 12.0 15.0 0.00 0.00 0.00 47 1005.6
20260506122724 73 271 12.0 15.0 0.00 0.00 0.00 50 1005.6
20260506122504 73 258 11.0 14.0 0.00 0.00 0.00 51 1003.9
20260506122004 73 241 11.0 13.0 0.00 0.00 0.00 50 1003.9
20260506121505 73 244 12.0 15.0 0.00 0.00 0.00 51 1004.1
20260506121225 73 274 12.0 16.0 0.00 0.00 0.00 50 1005.6
20260506121004 73 244 13.0 15.0 0.00 0.00 0.00 51 1004.0
20260506120724 73 299 12.0 14.0 0.00 0.00 0.00 51 1005.6
20260506120504 73 249 12.0 14.0 0.00 0.00 0.00 51 1004.2
20260506120005 73 277 13.0 17.0 0.00 0.00 0.00 51 1004.0
20260506115504 72 286 12.0 17.0 0.00 0.00 0.00 52 1003.9
20260506115225 72 253 11.0 16.0 0.00 0.00 0.00 51 1005.4
20260506115004 72 258 10.0 13.0 0.00 0.00 0.00 52 1004.0
20260506114725 72 238 10.0 13.0 0.00 0.00 0.00 50 1005.6